TimeCET,TemperatureF,Dew PointF,Humidity,Sea Level PressureIn,VisibilityMPH,Wind Direction,Wind SpeedMPH,Gust SpeedMPH,PrecipitationIn,Events,Conditions,WindDirDegrees,DateUTC
12:20 AM,46.4,42.8,87,30.21,5.0,Calm,Calm,-,N/A,,Unknown,0,2013-01-29 23:20:00
12:50 AM,48.2,42.8,82,30.21,5.0,WSW,3.5,-,N/A,,Unknown,240,2013-01-29 23:50:00
1:20 AM,50.0,44.6,82,30.21,-9999.0,SSW,3.5,-,N/A,,Clear,200,2013-01-30 00:20:00
1:50 AM,50.0,44.6,82,30.21,-9999.0,South,3.5,-,N/A,,Clear,190,2013-01-30 00:50:00
2:20 AM,48.2,44.6,87,30.21,-9999.0,South,4.6,-,N/A,,Clear,190,2013-01-30 01:20:00
2:50 AM,50.0,44.6,82,30.21,-9999.0,SW,4.6,-,N/A,,Clear,230,2013-01-30 01:50:00
3:20 AM,48.2,42.8,82,30.21,-9999.0,WSW,4.6,-,N/A,,Clear,250,2013-01-30 02:20:00
4:20 AM,46.4,41.0,81,30.18,-9999.0,Variable,2.3,-,N/A,,Clear,0,2013-01-30 03:20:00
4:50 AM,46.4,42.8,87,30.21,-9999.0,Variable,2.3,-,N/A,,Clear,0,2013-01-30 03:50:00
5:20 AM,46.4,42.8,87,30.21,-9999.0,South,3.5,-,N/A,,Clear,190,2013-01-30 04:20:00
5:50 AM,42.8,39.2,87,30.18,-9999.0,SW,2.3,-,N/A,,Clear,230,2013-01-30 04:50:00
6:20 AM,42.8,39.2,87,30.18,-9999.0,Calm,Calm,-,N/A,,Clear,0,2013-01-30 05:20:00
6:50 AM,42.8,39.2,87,30.21,6.2,North,2.3,-,N/A,,Partly Cloudy,10,2013-01-30 05:50:00
7:20 AM,44.6,41.0,87,30.21,6.2,Variable,1.2,-,N/A,,Scattered Clouds,0,2013-01-30 06:20:00
7:50 AM,44.6,41.0,87,30.21,6.2,Calm,Calm,-,N/A,,Scattered Clouds,0,2013-01-30 06:50:00
8:20 AM,44.6,42.8,93,30.21,6.2,WNW,1.2,-,N/A,,Mostly Cloudy,290,2013-01-30 07:20:00
8:50 AM,48.2,44.6,87,30.21,6.2,Variable,1.2,-,N/A,,Mostly Cloudy,0,2013-01-30 07:50:00
9:20 AM,51.8,46.4,82,30.21,6.2,Variable,1.2,-,N/A,,Mostly Cloudy,0,2013-01-30 08:20:00
9:50 AM,53.6,44.6,72,30.21,6.2,Variable,2.3,-,N/A,,Mostly Cloudy,0,2013-01-30 08:50:00
10:20 AM,55.4,46.4,72,30.21,6.2,SSE,3.5,-,N/A,,Mostly Cloudy,160,2013-01-30 09:20:00
10:50 AM,57.2,46.4,67,30.21,6.2,Variable,2.3,-,N/A,,Scattered Clouds,0,2013-01-30 09:50:00
11:20 AM,59.0,48.2,67,30.21,6.2,SSE,3.5,-,N/A,,Scattered Clouds,160,2013-01-30 10:20:00
11:50 AM,59.0,48.2,67,30.21,6.2,South,4.6,-,N/A,,Partly Cloudy,180,2013-01-30 10:50:00
12:20 PM,59.0,48.2,67,30.18,6.2,SSW,8.1,-,N/A,,Scattered Clouds,200,2013-01-30 11:20:00
12:50 PM,59.0,48.2,67,30.18,6.2,SSW,8.1,-,N/A,,Scattered Clouds,200,2013-01-30 11:50:00
1:20 PM,59.0,50.0,72,30.18,6.2,South,8.1,-,N/A,,Scattered Clouds,180,2013-01-30 12:20:00
1:50 PM,57.2,48.2,72,30.18,6.2,South,8.1,-,N/A,,Scattered Clouds,180,2013-01-30 12:50:00
2:20 PM,59.0,50.0,72,30.18,6.2,South,5.8,-,N/A,,Scattered Clouds,170,2013-01-30 13:20:00
2:50 PM,59.0,48.2,67,30.15,6.2,South,5.8,-,N/A,,Scattered Clouds,190,2013-01-30 13:50:00
3:20 PM,57.2,48.2,72,30.15,6.2,South,6.9,-,N/A,,Scattered Clouds,170,2013-01-30 14:20:00
3:50 PM,57.2,48.2,72,30.15,6.2,South,5.8,-,N/A,,Scattered Clouds,180,2013-01-30 14:50:00
4:20 PM,57.2,48.2,72,30.15,6.2,SSW,4.6,-,N/A,,Scattered Clouds,200,2013-01-30 15:20:00
4:50 PM,55.4,48.2,77,30.18,6.2,West,6.9,-,N/A,,Scattered Clouds,260,2013-01-30 15:50:00
5:20 PM,55.4,48.2,77,30.18,6.2,West,6.9,-,N/A,,Partly Cloudy,270,2013-01-30 16:20:00
5:50 PM,53.6,48.2,82,30.18,6.2,West,5.8,-,N/A,,Partly Cloudy,270,2013-01-30 16:50:00
6:20 PM,51.8,46.4,82,30.18,6.2,West,4.6,-,N/A,,Partly Cloudy,270,2013-01-30 17:20:00
6:50 PM,51.8,46.4,82,30.18,6.2,West,5.8,-,N/A,,Partly Cloudy,270,2013-01-30 17:50:00
7:20 PM,51.8,46.4,82,30.18,-9999.0,WSW,4.6,-,N/A,,Clear,240,2013-01-30 18:20:00
7:50 PM,51.8,46.4,82,30.18,-9999.0,South,2.3,-,N/A,,Clear,190,2013-01-30 18:50:00
8:20 PM,51.8,46.4,82,30.18,-9999.0,South,2.3,-,N/A,,Clear,180,2013-01-30 19:20:00
8:50 PM,51.8,46.4,82,30.18,6.2,SSE,3.5,-,N/A,,Partly Cloudy,150,2013-01-30 19:50:00
9:20 PM,51.8,48.2,88,30.18,6.2,South,2.3,-,N/A,,Partly Cloudy,190,2013-01-30 20:20:00
9:50 PM,50.0,46.4,87,30.18,6.2,Variable,2.3,-,N/A,,Partly Cloudy,0,2013-01-30 20:50:00
10:20 PM,51.8,48.2,88,30.18,6.2,South,2.3,-,N/A,,Scattered Clouds,190,2013-01-30 21:20:00
10:50 PM,51.8,48.2,88,30.18,5.0,Calm,Calm,-,N/A,,Scattered Clouds,0,2013-01-30 21:50:00
11:20 PM,53.6,48.2,82,30.18,5.0,South,3.5,-,N/A,,Scattered Clouds,190,2013-01-30 22:20:00
11:50 PM,53.6,48.2,82,30.15,5.0,SW,2.3,-,N/A,,Scattered Clouds,220,2013-01-30 22:50:00